Find Starlink 5680

NORAD ID: 55455 Int'l Des: 2023-015 Owner: SPXS Country: US Constellation: starlink operational
LEOCIRCULAR

当前视图

正在加载3D地球...

About Starlink 5680

Starlink 5680 (NORAD 55455) is a starlink constellation satellite (v1.5) launched Feb 2, 2023 by SPXS of US. It operates in LEO, CIRCULAR orbit with a mass of 305.00 kg.

即将过境

Passes for default location (London). Set your location on the main map for personalized predictions.

高度历史

Loading altitude history...

两行轨道根数

1 55455U 23015G 26265.15232981 -.00000084 00000-0 64713-5 0 9996
2 55455 43.0046 299.6185 0001473 292.8282 67.2414 15.27575149200766
Epoch: Sep 22, 2026 • Age: 29 hours

当前状态

高度 486.4 km
远地点 / 近地点 N/A
速度 7.63 km/s
星下点 39.55°N, 76.87°W
发射日期 Feb 2, 2023
运行时间 3.6 years
类型 internet

技术详情

分类 Payload
质量 305.00 kg
干质量 290.00 kg
长度 0.20 m
跨度 9.00 m
形状 ? Box + pan
制造商 SPXS
平台类型 Starlink
阶段状态 In Orbit
所有者/国家 SPXS/US

Most Searched